EW4221 Weather Reports


Display with metric or nautical units.
time (UTC)temp
F
wind
direction
speed
MPH
gust
MPH
rain 1hr
in
rain 24hr
in
rain mn
in
humidity
%
barometer
mb
20260504184556 70 192 13.0 24.0 0.00 0.00 0.00 35 1006.2
20260504183049 69 176 14.0 24.0 0.00 0.00 0.00 36 1006.3
20260504181548 69 157 6.0 23.0 0.00 0.00 0.00 39 1006.4
20260504180115 69 263 8.0 25.0 0.00 0.00 0.00 39 1006.5
20260504174542 67 234 13.0 27.0 0.00 0.00 0.00 41 1006.6
20260504173048 68 244 10.0 29.0 0.00 0.00 0.00 40 1006.7
20260504171537 68 290 7.0 19.0 0.00 0.00 0.00 41 1006.9
20260504081547 46 223 5.0 10.0 0.00 0.00 0.00 58 1010.1
20260504050021 46 240 5.0 10.0 0.00 0.00 0.00 54 1010.7
20260504044519 46 212 3.0 11.0 0.00 0.00 0.00 55 1010.8
20260504043018 46 207 3.0 10.0 0.00 0.00 0.00 55 1010.8
20260504041515 46 200 2.0 6.0 0.00 0.00 0.00 55 1010.8
20260504040013 46 169 4.0 7.0 0.00 0.00 0.00 54 1010.9
20260504034516 47 215 2.0 5.0 0.00 0.00 0.00 53 1010.9
20260504033012 47 248 2.0 5.0 0.00 0.00 0.00 52 1010.9
20260504031512 48 200 2.0 8.0 0.00 0.00 0.00 51 1010.9
20260504030010 48 190 3.0 7.0 0.00 0.00 0.00 51 1010.9
20260504024510 48 223 5.0 10.0 0.00 0.00 0.00 50 1011.0
20260504023011 49 211 3.0 8.0 0.00 0.00 0.00 50 1011.1
20260504021509 50 219 3.0 7.0 0.00 0.00 0.00 48 1011.2
20260504020008 50 236 3.0 5.0 0.00 0.00 0.00 47 1011.2
20260504014516 51 230 2.0 4.0 0.00 0.00 0.00 46 1011.0
20260504013009 51 229 3.0 8.0 0.00 0.00 0.00 45 1011.0
20260504011509 52 208 4.0 9.0 0.00 0.00 0.00 44 1010.9
20260504010007 52 229 3.0 8.0 0.00 0.00 0.00 45 1010.8
20260504004506 52 229 2.0 9.0 0.00 0.00 0.00 43 1010.7
20260504003006 53 194 4.0 9.0 0.00 0.00 0.00 43 1010.5
20260504001505 53 238 5.0 10.0 0.00 0.00 0.00 42 1010.5
20260504000005 53 249 5.0 12.0 0.00 0.00 0.00 42 1010.4
20260503234507 53 233 3.0 12.0 0.00 0.00 0.00 42 1010.3
20260503233003 54 217 5.0 16.0 0.00 0.00 0.00 42 1010.3
20260503231503 54 255 3.0 10.0 0.00 0.00 0.00 41 1010.2
20260503230002 54 252 4.0 13.0 0.00 0.00 0.00 40 1010.2
20260503224601 54 291 5.0 17.0 0.00 0.00 0.00 40 1010.3
20260503223100 54 287 6.0 15.0 0.00 0.00 0.00 40 1010.3
20260503221559 55 240 4.0 11.0 0.00 0.00 0.00 40 1010.3
20260503220105 54 299 9.0 20.0 0.00 0.00 0.00 39 1010.4
20260503214559 54 247 8.0 16.0 0.00 0.00 0.00 40 1010.4
20260503213133 54 247 7.0 16.0 0.00 0.00 0.00 43 1010.4
20260503211620 54 308 4.0 17.0 0.00 0.00 0.00 41 1010.3
20260503210056 55 225 5.0 19.0 0.00 0.00 0.00 40 1010.3
20260503204610 55 296 7.0 20.0 0.00 0.00 0.00 40 1010.4
20260503203101 56 309 7.0 18.0 0.00 0.00 0.00 39 1010.4
20260503201551 55 321 10.0 19.0 0.00 0.00 0.00 40 1010.6
20260503200051 54 335 8.0 17.0 0.00 0.00 0.00 41 1010.9
20260503194547 54 327 9.0 19.0 0.00 0.00 0.00 41 1011.1
20260503193046 54 298 11.0 19.0 0.00 0.00 0.00 41 1011.1
20260503191559 53 285 9.0 16.0 0.00 0.00 0.00 40 1011.3
20260503190047 54 269 10.0 19.0 0.00 0.00 0.00 40 1011.3